Weather History for Zapata, TX

Change the Weather History Date:

Sunday, July 14, 2013

  Actual Average (KLRD) Record (KLRD)
Temperature  
Mean Temperature 88 °F 88 °F  
Max Temperature 102 °F 99 °F 113 °F (1998)
Min Temperature 75 °F 77 °F 66 °F (1908)
Degree Days  
Heating Degree Days 0 0  
Month to date heating degree days 0  
Since 1 June heating degree days 0  
Since 1 July heating degree days 0  
Cooling Degree Days 24 23  
Month to date cooling degree days 322  
Year to date cooling degree days 2125  
Since 1 June cooling degree days 982  
Growing Degree Days 38 (Base 50)    
Moisture  
Dew Point 62 °F    
Average Humidity 49    
Maximum Humidity 79    
Minimum Humidity 15    
Precipitation  
Precipitation 0.00 in 0.08 in 1.25 in (1995)
Month to date precipitation 1.12  
Year to date precipitation 10.22  
Sea Level Pressure  
Sea Level Pressure 29.85 in    
Wind  
Wind Speed 8 mph (SE)    
Max Wind Speed 17 mph    
Max Gust Speed 25 mph    
Visibility 10 miles    
Events      
T = Trace of Precipitation, MM = Missing Value Source: NWS Daily Summary

Daily Weather History Graph

Daily Weather History Graph

Search for Another Location

Airport:

Trip Planner

Search our weather history database for the weather conditions in past years. The results will help you decide how hot, cold, wet, or windy it might be!

Date:

Astronomy

Jul. 14, 2013 Rise Set
Actual Time 6:52 AM CDT 8:33 PM CDT
Civil Twilight 6:26 AM CDT 8:59 PM CDT
Nautical Twilight 5:55 AM CDT 9:30 PM CDT
Astronomical Twilight 5:22 AM CDT 10:02 PM CDT
Moon 12:31 PM CDT (7/14) No Moon Set
Length of Visible Light 14h 32m
Length of Day
13h 41m
Waxing Crescent, 35% of the Moon is Illuminated
Jul 14
Waxing Crescent
Jul 15
First Quarter
Jul 22
Full
Jul 29
Last Quarter
Aug 6
New

Hourly Weather History & Observations

Time (CDT) Temp. Heat Index Dew Point Humidity Pressure Visibility Wind Dir Wind Speed Gust Speed Precip Events Conditions
12:15 AM 85.1 °F 86.9 °F 65.3 °F 51% 29.91 in 10.0 mi SE 9.2 mph - N/A   Clear
12:35 AM 84.7 °F 86.6 °F 65.5 °F 52% 29.91 in 10.0 mi SSE 10.4 mph - N/A   Clear
12:55 AM 84.2 °F 86.3 °F 65.7 °F 54% 29.90 in 10.0 mi SSE 10.4 mph 18.4 mph N/A   Clear
1:15 AM 83.7 °F 85.5 °F 65.7 °F 54% 29.89 in 10.0 mi SSE 10.4 mph 19.6 mph N/A   Clear
1:35 AM 82.9 °F 84.8 °F 65.3 °F 55% 29.89 in 10.0 mi SSE 9.2 mph - N/A   Clear
1:55 AM 82.4 °F 84.2 °F 65.5 °F 56% 29.89 in 10.0 mi SSE 6.9 mph - N/A   Clear
2:15 AM 81.9 °F 84.1 °F 66.2 °F 59% 29.89 in 10.0 mi SE 6.9 mph - N/A   Clear
2:35 AM 81.5 °F 83.7 °F 66.4 °F 60% 29.89 in 10.0 mi SE 6.9 mph - N/A   Clear
2:55 AM 80.8 °F 83.1 °F 66.6 °F 62% 29.89 in 10.0 mi SE 5.8 mph - N/A   Clear
3:35 AM 79.7 °F - 67.1 °F 65% 29.87 in 10.0 mi SE 3.5 mph - N/A   Clear
3:55 AM 79.2 °F - 67.1 °F 66% 29.88 in 10.0 mi ESE 3.5 mph - N/A   Clear
4:15 AM 78.3 °F - 67.1 °F 68% 29.87 in 10.0 mi ESE 4.6 mph - N/A   Clear
4:35 AM 78.1 °F - 67.1 °F 69% 29.87 in 10.0 mi ESE 3.5 mph - N/A   Clear
4:55 AM 77.9 °F - 67.3 °F 70% 29.87 in 10.0 mi Calm Calm - N/A   Clear
5:15 AM 77.2 °F - 67.5 °F 72% 29.86 in 10.0 mi SE 3.5 mph - N/A   Clear
5:35 AM 76.6 °F - 67.5 °F 73% 29.86 in 10.0 mi Calm Calm - N/A   Clear
5:55 AM 75.9 °F - 67.3 °F 74% 29.87 in 10.0 mi Calm Calm - N/A   Clear
6:15 AM 75.4 °F - 67.5 °F 76% 29.87 in 10.0 mi East 4.6 mph - N/A   Clear
6:35 AM 75.2 °F - 68.0 °F 78% 29.87 in 10.0 mi Calm Calm - N/A   Clear
6:55 AM 75.0 °F - 68.0 °F 79% 29.87 in 10.0 mi ESE 3.5 mph - N/A   Clear
7:15 AM 75.2 °F - 68.4 °F 79% 29.87 in 10.0 mi East 3.5 mph - N/A   Clear
7:35 AM 77.0 °F - 68.9 °F 76% 29.87 in 10.0 mi ESE 4.6 mph - N/A   Clear
7:55 AM 78.4 °F - 69.1 °F 73% 29.87 in 10.0 mi ESE 6.9 mph - N/A   Clear
8:15 AM 79.7 °F - 69.1 °F 70% 29.89 in 10.0 mi ESE 5.8 mph - N/A   Clear
9:15 AM 83.1 °F 86.3 °F 68.2 °F 61% 29.89 in 10.0 mi SE 6.9 mph - N/A   Clear
9:35 AM 84.2 °F 87.3 °F 68.0 °F 58% 29.90 in 10.0 mi SSE 6.9 mph - N/A   Clear
9:55 AM 85.8 °F 88.8 °F 67.6 °F 54% 29.89 in 10.0 mi SE 6.9 mph - N/A   Clear
10:35 AM 88.7 °F 91.9 °F 67.1 °F 49% 29.89 in 10.0 mi SE 4.6 mph - N/A   Clear
11:15 AM 91.6 °F 93.5 °F 65.1 °F 41% 29.89 in 10.0 mi SE 6.9 mph - N/A   Clear
11:35 AM 93.0 °F 93.8 °F 62.6 °F 36% 29.88 in 10.0 mi East 3.5 mph - N/A   Clear
11:55 AM 95.2 °F 93.6 °F 55.9 °F 27% 29.88 in 10.0 mi SE 5.8 mph - N/A   Clear
12:35 PM 97.3 °F 95.5 °F 54.9 °F 24% 29.87 in 10.0 mi ESE 8.1 mph - N/A   Clear
1:15 PM 98.8 °F - 50.7 °F 20% 29.87 in 10.0 mi East 3.5 mph - N/A   Clear
1:35 PM 98.6 °F - 49.8 °F 19% 29.87 in 10.0 mi ESE 9.2 mph - N/A   Clear
2:35 PM 100.4 °F - 48.7 °F 17% 29.84 in 10.0 mi SE 8.1 mph 17.3 mph N/A   Clear
2:55 PM 100.4 °F - 49.1 °F 18% 29.83 in 10.0 mi ESE 12.7 mph 18.4 mph N/A   Clear
3:15 PM 102.0 °F - 45.9 °F 15% 29.82 in 10.0 mi ESE 8.1 mph 19.6 mph N/A   Clear
3:35 PM 101.5 °F - 48.6 °F 17% 29.81 in 10.0 mi SE 9.2 mph 17.3 mph N/A   Clear
3:55 PM 102.0 °F - 47.3 °F 16% 29.79 in 10.0 mi SE 15.0 mph 20.7 mph N/A   Scattered Clouds
5:55 PM 100.8 °F - 45.0 °F 15% 29.76 in 10.0 mi SE 6.9 mph 18.4 mph N/A   Clear
6:15 PM 100.8 °F - 46.9 °F 16% 29.75 in 10.0 mi East 11.5 mph 25.3 mph N/A   Clear
7:15 PM 98.2 °F - 48.2 °F 18% 29.76 in 10.0 mi SE 10.4 mph 19.6 mph N/A   Clear
7:35 PM 97.9 °F - 47.3 °F 18% 29.77 in 10.0 mi ESE 10.4 mph 17.3 mph N/A   Clear
8:35 PM 94.1 °F 93.1 °F 58.5 °F 30% 29.79 in 10.0 mi East 16.1 mph 23.0 mph N/A   Clear
8:55 PM 88.2 °F 89.6 °F 64.6 °F 45% 29.79 in 10.0 mi East 17.3 mph 23.0 mph N/A   Clear
9:15 PM 87.4 °F 88.8 °F 64.4 °F 46% 29.80 in 10.0 mi East 13.8 mph 23.0 mph N/A   Clear
9:35 PM 87.3 °F 88.9 °F 64.8 °F 47% 29.80 in 10.0 mi ESE 12.7 mph 19.6 mph N/A   Clear
9:55 PM 87.4 °F 88.8 °F 64.4 °F 46% 29.81 in 10.0 mi ESE 10.4 mph - N/A   Clear
10:15 PM 87.8 °F 88.8 °F 63.7 °F 44% 29.82 in 10.0 mi SE 13.8 mph 19.6 mph N/A   Clear
11:35 PM 85.1 °F 87.4 °F 66.2 °F 53% 29.85 in 10.0 mi SSE 15.0 mph 24.2 mph N/A   Clear
11:55 PM 84.4 °F 86.3 °F 65.7 °F 53% 29.85 in 10.0 mi SE 11.5 mph 23.0 mph N/A   Clear